Regional Weather Roundup
Issued by NWS

Home | Current Version | Previous Version | Graphics & Text | Print | Product List | Glossary On
Versions: 1 2 3 4 5 6 7 8 9 10 11 12 13 14 15 16 17 18 19 20 21 22 23 24 25 26 27 28 29 30 31 32 33 34 35 36 37 38 39 40 41 42 43 44 45 46 47 48 49 50
000
ASUS43 KIND 051559
RWRIN

WEATHER ROUNDUP FOR INDIANA
NATIONAL WEATHER SERVICE INDIANAPOLIS IN
1100 AM EST FRI FEB 05 2016

NOTE: "FAIR" INDICATES FEW OR NO CLOUDS BELOW 12,000 FEET WITH NO
SIGNIFICANT WEATHER AND/OR OBSTRUCTIONS TO VISIBILITY.

* - STATION DOES NOT REPORT WEATHER SUCH AS PRECIPITATION OR FOG.

+ - STATION NOT QUALITY CONTROLLED BY THE NATIONAL WEATHER SERVICE.
    USE DATA WITH CAUTION...ESPECIALLY DEWPOINT AND RELATIVE
    HUMIDITY OBSERVATIONS.

INZ001>003-010>013-019-020-051700-
NORTHWEST INDIANA

CITY           SKY/WX    TMP DP  RH WIND       PRES   REMARKS
GARY /AIRPORT/ CLOUDY    32  25  74 W7        30.36R WCI  26
RENSSELAER +   PTSUNNY   32  25  74 W10       30.36S WCI  24

$$

LMZ046-743>745-051700-
SOUTHERN LAKE MICHIGAN

STATION/POSITION TIME  TEMP    WIND        PRES    WAVE
                       AIR SEA DIR/SP/G            HT
                 (UTC) (F)     (DEG/KT/KT) (MB)    (FT)
BURNS HARBOR     1500   30     280/  7/  9 1027.8R
MICHIGAN CITY    1500   28     200/  6/  6   N/A

$$

INZ004-005-014>016-021>024-051700-
NORTH CENTRAL INDIANA

CITY           SKY/WX    TMP DP  RH WIND       PRES   REMARKS
ELKHART          N/A     30  23  74 MISG      30.34R
GOSHEN         SUNNY     31  22  69 SW9       30.33S WCI  23
SOUTH BEND     CLOUDY    29  23  78 SW8       30.34R WCI  21

$$

INZ006>009-017-018-025>027-051700-
NORTHEAST INDIANA

CITY           SKY/WX    TMP DP  RH WIND       PRES   REMARKS
ANGOLA *+      SUNNY     30  23  74 SW7       30.32S WCI  23
FORT WAYNE     MOSUNNY   33  22  63 SW12      30.36F WCI  24

$$

INZ028-029-035-036-043>045-051>053-051700-
WEST CENTRAL INDIANA

CITY           SKY/WX    TMP DP  RH WIND       PRES   REMARKS
GREENCASTLE +  SUNNY     32  18  55 SW6       30.39R WCI  26
LAFAYETTE      PTSUNNY   31  25  78 W7        30.38R WCI  24
TERRE HAUTE    SUNNY     32  22  66 W7        30.41R WCI  26

$$

INZ030>032-037>040-046>048-054>057-064-065-051700-
CENTRAL INDIANA

CITY           SKY/WX    TMP DP  RH WIND       PRES   REMARKS
COLUMBUS       SUNNY     32  25  74 S10       30.41F WCI  24
GREENWOOD *+   SUNNY     36  25  64 S10       30.39S
INDIANAPOLIS   MOSUNNY   33  20  58 S9        30.37S WCI  25
-EAGLE CREEK   SUNNY     33  21  61 VRB7      30.37S WCI  27
KOKOMO *+      MOSUNNY   34  19  55 W12       30.36R WCI  25
MT COMFORT *+  SUNNY     32  23  69 SW12      30.38S WCI  23
SHELBYVILLE    SUNNY     34  22  61 S13       30.39S WCI  25

$$

INZ033-034-041-042-049-050-058-059-051700-
EAST CENTRAL INDIANA

CITY           SKY/WX    TMP DP  RH WIND       PRES   REMARKS
MUNCIE         SUNNY     36  18  48 S10       30.36F

$$

INZ060-061-067>069-081>083-085>088-051700-
SOUTHWEST INDIANA

CITY           SKY/WX    TMP DP  RH WIND       PRES   REMARKS
EVANSVILLE     SUNNY     40  24  53 SW7       30.44S
HUNTINGBURG *+ SUNNY     36  25  64 S8        30.44S

$$

INZ062-063-066-070>080-084-089>092-051700-
SOUTH CENTRAL AND SOUTHEAST INDIANA

CITY           SKY/WX    TMP DP  RH WIND       PRES   REMARKS
BLOOMINGTON    SUNNY     34  21  59 SW9       30.39S WCI  27
MADISON *+     SUNNY     34  23  64 S6        30.45S WCI  29
SEYMOUR +      SUNNY     36  23  60 S7        30.42F

$$




USA.gov is the U.S. government's official web portal to all federal, state and local government web resources and services.